XSVQSIUF Weather Reports


Display with metric or nautical units.
time (UTC)temp
F
wind
direction
speed
MPH
gust
MPH
rain 1hr
in
rain 24hr
in
rain mn
in
humidity
%
barometer
mb
20260901063003 67 208 0.0 0.0 0.04 0.15 0.10 98 1018.9
20260901061559 67 208 0.0 0.0 0.05 0.15 0.10 98 1019.1
20260901060059 67 208 0.0 1.0 0.08 0.15 0.10 98 1019.0
20260901054554 67 208 0.0 0.0 0.04 0.11 0.06 98 1019.1
20260901053118 67 208 0.0 0.0 0.05 0.11 0.06 98 1019.2
20260901051604 67 208 0.0 0.0 0.05 0.10 0.05 98 1019.4
20260901050047 67 207 0.0 0.0 0.02 0.07 0.02 98 1019.5
20260901044554 67 207 0.0 0.0 0.02 0.07 0.02 98 1019.6
20260901043041 67 207 0.0 0.0 0.01 0.06 0.01 98 1019.5
20260901041536 67 207 0.0 0.0 0.00 0.05 0.00 98 1019.7
20260901040037 67 206 0.0 0.0 0.01 0.05 0.00 97 1019.9
20260901034532 67 206 0.0 0.0 0.01 0.05 0.05 97 1019.8
20260901033030 67 201 0.0 1.0 0.02 0.05 0.05 97 1020.0
20260901031532 67 210 0.0 1.0 0.02 0.05 0.05 97 1019.8
20260901030025 67 209 0.0 1.0 0.01 0.04 0.04 97 1020.0
20260901024522 67 207 0.0 0.0 0.01 0.06 0.04 97 1020.2
20260901023032 67 207 0.0 0.0 0.00 0.05 0.03 97 1020.3
20260901021523 67 207 0.0 0.0 0.00 0.05 0.03 97 1020.5
20260901020017 67 206 0.0 0.0 0.00 0.05 0.03 97 1020.4
20260901014514 66 206 0.0 0.0 0.00 0.10 0.03 97 1020.3
20260901013012 66 206 0.0 0.0 0.01 0.10 0.03 96 1020.4
20260901011520 67 206 0.0 0.0 0.01 0.10 0.03 96 1020.4
20260901010010 67 206 0.0 0.0 0.01 0.10 0.03 96 1020.4
20260901004507 67 206 0.0 0.0 0.01 0.10 0.03 96 1020.6
20260901003005 67 206 0.0 0.0 0.00 0.09 0.02 96 1020.5
20260901001504 67 206 0.0 0.0 0.00 0.09 0.02 96 1020.3
20260901000002 67 206 0.0 0.0 0.00 0.09 0.02 96 1020.2
20260831234600 67 206 0.0 0.0 0.00 0.09 0.02 95 1020.3
20260831233058 67 206 0.0 0.0 0.00 0.09 0.02 95 1020.2
20260831231557 67 206 0.0 0.0 0.00 0.09 0.02 95 1020.3
20260831230103 67 205 0.0 0.0 0.01 0.09 0.02 95 1020.7
20260831224552 68 205 0.0 0.0 0.01 0.09 0.02 94 1020.7
20260831223051 68 205 0.0 0.0 0.01 0.09 0.02 93 1020.9
20260831221557 69 205 0.0 0.0 0.01 0.09 0.02 92 1020.9
20260831220058 69 204 0.0 2.0 0.00 0.08 0.01 90 1020.9
20260831214543 70 205 0.0 0.0 0.00 0.08 0.01 91 1020.8
20260831213042 70 205 0.0 0.0 0.00 0.08 0.01 92 1020.6
20260831211541 71 205 0.0 0.0 0.00 0.08 0.01 91 1020.6
20260831210039 71 205 0.0 0.0 0.00 0.08 0.01 90 1020.6
20260831204543 71 205 0.0 0.0 0.01 0.08 0.01 90 1020.4
20260831203034 72 205 0.0 0.0 0.01 0.08 0.01 89 1020.5
20260831201533 73 205 0.0 0.0 0.01 0.08 0.01 86 1020.5
20260831200040 74 205 0.0 0.0 0.01 0.08 0.01 84 1020.7
20260831194531 74 205 0.0 1.0 0.00 0.07 0.00 80 1020.8
20260831193036 75 194 0.0 2.0 0.00 0.07 0.00 78 1021.1
20260831191528 75 219 0.0 1.0 0.00 0.07 0.00 81 1021.1
20260831190022 75 207 0.0 0.0 0.00 0.07 0.00 80 1021.4
20260831184522 74 207 0.0 1.0 0.00 0.07 0.00 80 1021.5
20260831183018 75 210 0.0 0.0 0.00 0.07 0.00 78 1021.6
20260831181520 75 222 0.0 2.0 0.00 0.07 0.00 80 1021.5
20260831180024 75 207 0.0 0.0 0.00 0.07 0.00 79 1021.8
20260831174521 75 207 0.0 1.0 0.00 0.07 0.00 77 1022.0
20260831173010 76 211 0.0 2.0 0.00 0.07 0.00 76 1022.2
20260831171507 76 205 0.0 0.0 0.00 0.07 0.00 73 1022.2
20260831170005 76 198 0.0 1.0 0.00 0.07 0.00 71 1022.1
20260831164506 77 203 0.0 1.0 0.00 0.07 0.00 71 1022.1
20260831163057 76 210 0.0 1.0 0.00 0.07 0.00 74 1022.1
20260831161555 75 204 0.0 1.0 0.00 0.07 0.00 76 1022.3
20260831160052 75 212 1.0 3.0 0.00 0.07 0.00 75 1022.5
20260831154552 76 210 0.0 3.0 0.00 0.07 0.00 74 1022.4
20260831153046 76 223 0.0 2.0 0.00 0.07 0.00 77 1022.7
20260831151550 75 191 0.0 4.0 0.00 0.07 0.00 78 1022.7
20260831150045 74 199 0.0 2.0 0.00 0.07 0.00 78 1022.5
20260831144536 74 217 0.0 4.0 0.00 0.07 0.00 82 1022.7
20260831143032 73 199 0.0 2.0 0.00 0.07 0.00 78 1022.7
20260831141525 72 205 0.0 2.0 0.00 0.07 0.00 83 1022.6
20260831140024 72 212 0.0 0.0 0.00 0.07 0.00 88 1022.5
20260831134518 70 207 0.0 0.0 0.00 0.07 0.00 93 1022.6
20260831133012 69 207 0.0 1.0 0.00 0.07 0.00 96 1022.7
20260831131508 67 207 0.0 1.0 0.00 0.07 0.00 98 1022.6
20260831130004 66 203 0.0 0.0 0.00 0.07 0.00 99 1022.7
20260831124503 65 204 0.0 0.0 0.00 0.07 0.00 99 1022.7
20260831123100 64 203 0.0 0.0 0.00 0.07 0.00 99 1022.9
20260831121558 63 203 0.0 0.0 0.00 0.07 0.00 98 1022.9
20260831120056 63 200 0.0 0.0 0.00 0.07 0.00 98 1022.7
20260831114552 63 200 0.0 0.0 0.00 0.07 0.00 98 1022.6
20260831113051 62 200 0.0 0.0 0.00 0.07 0.00 98 1022.4
20260831111602 62 200 0.0 0.0 0.00 0.07 0.00 98 1022.3
20260831110048 62 200 0.0 0.0 0.00 0.07 0.00 98 1022.0
20260831104553 62 200 0.0 0.0 0.00 0.07 0.00 98 1021.8
20260831103039 62 200 0.0 0.0 0.00 0.07 0.00 98 1021.7
20260831101536 62 200 0.0 0.0 0.00 0.07 0.00 98 1021.4
20260831100033 62 200 0.0 0.0 0.00 0.07 0.00 98 1021.5
20260831094532 62 200 0.0 0.0 0.00 0.07 0.00 98 1021.7
20260831093038 62 199 0.0 1.0 0.00 0.07 0.00 98 1021.7
20260831091526 62 200 0.0 0.0 0.00 0.07 0.00 98 1021.8
20260831090025 61 200 0.0 0.0 0.00 0.07 0.00 98 1021.8
20260831084522 61 200 0.0 0.0 0.00 0.07 0.00 98 1021.5
20260831083021 61 200 0.0 0.0 0.00 0.07 0.00 98 1021.2
20260831081517 61 200 0.0 0.0 0.00 0.07 0.00 97 1021.3
20260831080020 61 200 0.0 0.0 0.00 0.07 0.00 98 1021.6
20260831074511 61 200 0.0 0.0 0.00 0.07 0.00 98 1021.4
20260831073012 62 199 0.0 0.0 0.00 0.07 0.00 97 1021.1
20260831071522 62 200 0.0 0.0 0.00 0.07 0.00 98 1021.3
20260831070005 62 200 0.0 0.0 0.00 0.07 0.00 97 1021.3
20260831064601 62 199 0.0 0.0 0.00 0.07 0.00 97 1021.2